This is the latest recevied weather packets stored in our database for station/object IZ3LCH-13. If no packets are shown the sender has not sent any weather packets the latest 10 day(s).
| Time | Temp. | Humidity | Pressure | Rain* | Wind** | Luminosity | Snow |
|---|---|---|---|---|---|---|---|
| 1777729203 | 25° C | 33% | 1021.8 hPa | 0 mm | - | - | - |
| 1777728903 | 25° C | 33% | 1022.1 hPa | 0 mm | - | - | - |
| 1777728603 | 24.44° C | 32% | 1022.1 hPa | 0 mm | - | - | - |
| 1777728304 | 24.44° C | 32% | 1022.1 hPa | 0 mm | - | - | - |
| 1777728003 | 24.44° C | 34% | 1022.1 hPa | 0 mm | - | - | - |
| 1777727703 | 24.44° C | 34% | 1022.1 hPa | 0 mm | - | - | - |
| 1777727403 | 23.89° C | 33% | 1022.3 hPa | 0 mm | - | - | - |
| 1777727103 | 23.89° C | 33% | 1022.4 hPa | 0 mm | - | - | - |
| 1777726803 | 23.89° C | 34% | 1022.5 hPa | 0 mm | - | - | - |
| 1777726503 | 24.44° C | 33% | 1022.5 hPa | 0 mm | - | - | - |
| 1777726203 | 23.89° C | 36% | 1022.5 hPa | 0 mm | - | - | - |
| 1777725903 | 24.44° C | 32% | 1022.7 hPa | 0 mm | - | - | - |
| 1777725603 | 24.44° C | 32% | 1022.9 hPa | 0 mm | - | - | - |
| 1777725303 | 23.89° C | 34% | 1022.9 hPa | 0 mm | - | - | - |
| 1777725003 | 23.89° C | 33% | 1022.6 hPa | 0 mm | - | - | - |
| 1777724703 | 23.89° C | 33% | 1022.9 hPa | 0 mm | - | - | - |
| 1777724403 | 23.89° C | 33% | 1022.9 hPa | 0 mm | - | - | - |
| 1777724103 | 23.89° C | 36% | 1023.1 hPa | 0 mm | - | - | - |
| 1777723803 | 23.89° C | 33% | 1023.2 hPa | 0 mm | - | - | - |
| 1777723503 | 23.89° C | 33% | 1023.1 hPa | 0 mm | - | - | - |
| 1777723203 | 23.89° C | 36% | 1023 hPa | 0 mm | - | - | - |
| 1777722903 | 23.89° C | 34% | 1023.1 hPa | 0 mm | - | - | - |
| 1777722603 | 23.89° C | 34% | 1023.2 hPa | 0 mm | - | - | - |
| 1777722303 | 23.89° C | 34% | 1023.3 hPa | 0 mm | - | - | - |
| 1777722008 | 23.89° C | 34% | 1023.3 hPa | 0 mm | - | - | - |
* Rain latest hour (hover to see other rain measurements)
** Current wind speed in m/s (hover to see current wind gust speed)